1491670800.94,42833,11.38,73530.8,-5.41,-6.09,-6.05,0,*52
1491670802.12,42834,11.38,73526.8,-5.39,-6.05,-6.01,0,*52
1491670803.31,42835,11.38,73524.0,-5.39,-6.05,-6.01,0,*53
1491670804.5,42836,11.38,73524.5,-5.39,-6.05,-6.01,0,*50
1491670805.72,42837,11.38,73520.3,-5.41,-6.05,-6.09,0,*56
1491670806.92,42838,11.38,73512.5,-5.39,-6.01,-6.05,0,*5E
1491670808.11,42839,11.38,73510.0,-5.39,-6.01,-6.05,0,*5F
1491670809.3,42840,11.38,73518.0,-5.39,-6.01,-6.05,0,*51
1491670810.5,42841,11.38,73522.8,-5.39,-6.01,-6.01,0,*54
1491670811.69,42842,11.38,73534.3,-5.39,-6.01,-6.01,0,*57
1491670812.88,42843,11.38,73532.0,-5.39,-6.01,-6.01,0,*56
1491670814.07,42844,11.38,73528.8,-5.39,-6.01,-6.05,0,*55
1491670815.27,42845,11.38,73538.0,-5.39,-6.01,-6.01,0,*50
1491670816.46,42846,11.38,73554.8,-5.39,-6.05,-6.05,0,*53
1491670817.65,42847,11.38,73544.8,-5.39,-6.05,-6.01,0,*56
1491670818.84,42848,11.38,73538.3,-5.39,-6.01,-6.01,0,*5D
1491670820.07,42849,11.38,73548.0,-5.41,-6.09,-6.05,0,*5F
1491670821.29,42850,11.38,73560.0,-5.39,-6.13,-5.93,0,*5F
1491670822.48,42851,11.38,73558.0,-5.39,-6.05,-6.05,0,*55
1491670823.67,42852,11.38,73580.5,-5.39,-6.01,-6.05,0,*52
1491670824.89,42853,11.38,73570.3,-5.41,-6.05,-6.09,0,*54
1491670826.08,42854,11.38,73544.8,-5.39,-6.05,-6.09,0,*5C
1491670827.3,42855,11.44,73542.3,-5.41,-6.09,-6.05,0,*52
1491670828.49,42856,11.38,73542.5,-5.39,-6.05,-6.05,0,*52
1491670829.71,42857,11.38,73552.0,-5.41,-6.05,-6.05,0,*5C
1491670830.9,42858,11.38,73548.8,-5.39,-6.05,-6.05,0,*5C
1491670832.09,42859,11.38,73552.0,-5.39,-6.01,-6.01,0,*5D
1491670833.32,42860,11.38,73538.5,-5.41,-6.09,-6.05,0,*54
1491670834.54,42861,11.38,73548.0,-5.41,-6.05,-6.05,0,*59
1491670835.73,42862,11.38,73550.5,-5.39,-6.05,-6.01,0,*51
1491670836.95,42863,11.38,73548.5,-5.41,-6.09,-6.05,0,*57
1491670838.18,42864,11.38,73552.3,-5.41,-6.09,-6.05,0,*50
1491670839.4,42865,11.38,73554.3,-5.41,-6.05,-6.09,0,*51
1491670840.62,42866,11.38,73554.5,-5.41,-6.09,-6.09,0,*5E
1491670841.84,42867,11.38,73554.3,-5.41,-6.05,-6.09,0,*53
1491670843.03,42868,11.38,73550.0,-5.39,-6.05,-6.01,0,*5B
1491670844.22,42869,11.38,73550.0,-5.39,-6.05,-6.05,0,*5E
1491670845.44,42870,11.38,73554.0,-5.41,-6.05,-6.05,0,*59
1491670846.63,42871,11.38,73554.3,-5.39,-6.09,-6.05,0,*5B
1491670847.82,42872,11.38,73558.0,-5.39,-6.05,-6.05,0,*54
1491670849.01,42873,11.38,73554.8,-5.39,-6.01,-6.05,0,*51
1491670850.21,42874,11.44,73556.8,-5.39,-6.09,-6.09,0,*52
1491670851.43,42875,11.44,73552.8,-5.41,-6.05,-6.05,0,*5C
1491670852.65,42876,11.38,73548.3,-5.41,-6.09,-6.09,0,*5F
1491670853.88,42877,11.38,73542.3,-5.41,-6.09,-6.09,0,*5E
1491670855.1,42878,11.38,73544.0,-5.41,-6.09,-6.09,0,*51
1491670856.3,42879,11.38,73536.3,-5.39,-6.09,-6.05,0,*53
1491670857.53,42880,11.38,73540.5,-5.41,-6.09,-6.09,0,*56
1491670858.74,42881,11.38,73540.8,-5.41,-6.05,-6.09,0,*5B
1491670859.93,42882,11.38,73534.8,-5.39,-6.05,-6.05,0,*5B
1491670861.12,42883,11.38,73538.5,-5.39,-6.05,-6.05,0,*5A
1491670862.31,42884,11.38,73536.5,-5.39,-6.05,-6.01,0,*59
1491670863.54,42885,11.38,73528.5,-5.41,-6.09,-6.09,0,*53
1491670864.73,42886,11.38,73534.0,-5.39,-6.05,-6.05,0,*5F
1491670865.95,42887,11.38,73530.3,-5.41,-6.09,-6.05,0,*5D
1491670867.14,42888,11.38,73536.8,-5.39,-6.01,-6.01,0,*51
1491670868.33,42889,11.38,73532.8,-5.39,-6.05,-6.05,0,*50
1491670869.52,42890,11.38,73530.8,-5.39,-6.05,-6.05,0,*58
1491670870.72,42891,11.38,73542.5,-5.39,-6.01,-6.05,0,*5D
1491670871.9,42892,11.38,73544.0,-5.39,-6.05,-6.05,0,*5A
1491670873.13,42893,11.38,73550.5,-5.41,-6.09,-6.05,0,*58
1491670874.32,42894,11.38,73544.3,-5.39,-6.05,-6.05,0,*5C
1491670875.51,42895,11.38,73550.3,-5.39,-6.05,-6.05,0,*5D
1491670876.7,42896,11.38,73548.5,-5.39,-6.05,-6.05,0,*5E
1491670877.89,42897,11.38,73554.0,-5.39,-6.01,-6.05,0,*5B
1491670879.08,42898,11.38,73554.5,-5.39,-6.01,-6.05,0,*54
1491670880.27,42899,11.38,73564.0,-5.39,-6.05,-6.05,0,*51
1491670881.5,42900,11.38,73562.0,-5.41,-6.09,-6.09,0,*5F
1491670882.72,42901,11.38,73562.0,-5.41,-6.09,-6.09,0,*5E
1491670883.95,42902,11.38,73558.8,-5.41,-6.09,-6.05,0,*51
1491670885.14,42903,11.38,73556.5,-5.39,-6.01,-6.05,0,*57
1491670886.36,42904,11.38,73562.8,-5.41,-6.09,-6.09,0,*5B
1491670887.59,42905,11.38,73560.8,-5.41,-6.09,-6.09,0,*5A
1491670888.78,42906,11.38,73554.0,-5.39,-6.09,-6.05,0,*5A
1491670889.97,42907,11.38,73550.3,-5.39,-6.05,-6.05,0,*57
1491670891.19,42908,11.38,73558.0,-5.39,-6.19,-6.05,0,*55
1491670892.38,42909,11.38,73558.3,-5.39,-6.05,-6.05,0,*59
1491670893.6,42910,11.38,73562.5,-5.41,-6.05,-6.09,0,*52
1491670894.79,42911,11.38,73568.3,-5.39,-6.05,-6.01,0,*54
1491670896.01,42912,11.38,73574.3,-5.41,-6.09,-6.09,0,*5C
1491670897.2,42913,11.38,73568.0,-5.39,-6.05,-6.05,0,*52
1491670898.43,42914,11.38,73570.3,-5.41,-6.09,-6.09,0,*5A
1491670899.65,42915,11.38,73566.3,-5.41,-6.09,-6.09,0,*5B
1491670900.9,42916,11.38,73564.3,-5.41,-6.19,-6.05,0,*55
1491670902.12,42917,11.38,73566.0,-5.41,-6.05,-6.09,0,*55
1491670903.34,42918,11.38,73562.5,-5.41,-6.05,-6.09,0,*5A
1491670904.53,42919,11.38,73570.0,-5.39,-6.05,-6.01,0,*5C
1491670905.76,42920,11.38,73570.8,-5.41,-6.09,-6.05,0,*51
1491670906.98,42921,11.38,73572.5,-5.41,-6.09,-6.05,0,*50
1491670908.17,42922,11.38,73574.3,-5.39,-6.05,-6.05,0,*50
1491670909.36,42923,11.38,73566.3,-5.39,-6.05,-6.05,0,*51
1491670910.58,42924,11.38,73566.3,-5.41,-6.05,-6.09,0,*55
1491670911.77,42925,11.38,73568.0,-5.39,-6.05,-6.01,0,*53
1491670912.99,42926,11.38,73566.5,-5.41,-6.05,-6.09,0,*57
1491670914.21,42927,11.38,73566.3,-5.41,-6.09,-6.09,0,*5A
1491670915.44,42928,11.38,73564.3,-5.41,-6.09,-6.09,0,*55
1491670916.66,42929,11.38,73572.5,-5.39,-6.19,-6.05,0,*56
1491670917.88,42930,11.38,73570.0,-5.41,-6.09,-6.05,0,*50
1491670919.11,42931,11.38,73568.0,-5.41,-6.09,-6.05,0,*51
1491670920.3,42932,11.38,73564.5,-5.39,-6.05,-6.01,0,*55
1491670921.49,42933,11.38,73558.8,-5.39,-6.05,-6.01,0,*54
1491670922.68,42934,11.38,73558.3,-5.39,-6.05,-6.01,0,*53
1491670923.87,42935,11.38,73554.3,-5.39,-6.05,-6.05,0,*56
1491670925.06,42936,11.38,73542.3,-5.39,-6.01,-6.05,0,*51
1491670926.25,42937,11.38,73542.3,-5.39,-6.01,-6.05,0,*50
1491670927.44,42938,11.38,73556.5,-5.39,-6.05,-6.05,0,*5B
1491670928.63,42939,11.38,73552.3,-5.39,-6.05,-6.05,0,*5A
1491670929.82,42940,11.38,73562.3,-5.39,-6.05,-6.01,0,*50
1491670931.01,42941,11.38,73578.3,-5.39,-6.01,-6.01,0,*55
1491670932.21,42942,11.38,73584.5,-5.39,-6.01,-6.05,0,*52
1491670933.4,42943,11.38,73588.3,-5.39,-6.01,-6.01,0,*57
1491670934.59,42944,11.38,73594.3,-5.39,-6.01,-6.01,0,*50
1491670935.82,42945,11.38,73594.5,-5.41,-6.09,-6.05,0,*52
1491670937.04,42946,11.38,73564.5,-5.41,-6.05,-6.05,0,*5D
1491670938.23,42947,11.38,73578.3,-5.39,-6.01,-6.05,0,*57
1491670939.42,42948,11.38,73562.8,-5.39,-6.05,-6.01,0,*58
1491670940.61,42949,11.38,73562.3,-5.39,-6.05,-6.01,0,*59
1491670941.8,42950,11.38,73574.5,-5.39,-6.05,-6.05,0,*55
1491670942.99,42951,11.38,73578.0,-5.39,-6.01,-6.05,0,*50
1491670944.21,42952,11.38,73542.5,-5.41,-6.05,-6.05,0,*58
1491670945.4,42953,11.38,73552.5,-5.39,-6.01,-6.01,0,*56
1491670946.59,42954,11.38,73552.8,-5.39,-6.05,-6.01,0,*55
1491670947.79,42955,11.38,73548.8,-5.39,-6.01,-6.05,0,*54
1491670949.0,42956,11.38,73570.5,-5.41,-6.05,-6.05,0,*5C
1491670950.2,42957,11.38,73554.5,-5.39,-6.01,-6.05,0,*56
1491670951.42,42958,11.38,73548.8,-5.41,-6.05,-6.09,0,*5E
1491670952.64,42959,11.38,73546.5,-5.41,-6.05,-6.09,0,*5F
1491670953.83,42960,11.38,73550.0,-5.39,-6.01,-6.01,0,*56
1491670955.02,42961,11.38,73552.8,-5.39,-6.05,-6.01,0,*53
1491670956.21,42962,11.38,73554.3,-5.39,-6.01,-6.05,0,*50
1491670957.4,42963,11.38,73552.0,-5.39,-6.05,-6.13,0,*52
1491670958.63,42964,11.38,73558.5,-5.41,-6.09,-6.09,0,*5D
1491670959.85,42965,11.38,73556.0,-5.41,-6.05,-6.09,0,*50
1491670961.04,42966,11.38,73556.3,-5.39,-6.05,-6.01,0,*54
1491670962.23,42967,11.38,73562.3,-5.39,-6.05,-6.05,0,*51
1491670963.42,42968,11.38,73576.5,-5.39,-6.01,-6.01,0,*5E
1491670964.64,42969,11.38,73588.0,-5.41,-6.05,-6.09,0,*5C
1491670965.86,42970,11.38,73586.8,-5.41,-6.09,-6.09,0,*58
1491670967.09,42971,11.38,73590.5,-5.41,-6.09,-6.05,0,*55
1491670968.31,42972,11.38,73590.8,-5.41,-6.09,-6.05,0,*56
1491670969.51,42973,11.38,73592.0,-5.39,-6.01,-6.05,0,*50
1491670970.73,42974,11.38,73580.5,-5.41,-6.05,-6.09,0,*50
1491670971.95,42975,11.38,73584.8,-5.41,-6.09,-6.05,0,*51
1491670973.14,42976,11.38,73592.0,-5.39,-6.05,-6.05,0,*51
1491670974.33,42977,11.38,73578.3,-5.39,-6.05,-6.01,0,*54
1491670975.52,42978,11.38,73602.8,-5.39,-6.05,-6.01,0,*5B
1491670976.71,42979,11.38,73612.8,-5.39,-6.01,-6.01,0,*5E
1491670977.94,42980,11.38,73598.5,-5.39,-6.13,-5.93,0,*53
1491670979.15,42981,11.38,73588.3,-5.41,-6.05,-6.09,0,*5A
1491670980.35,42982,11.38,73578.5,-5.39,-6.01,-6.05,0,*5E
1491670981.6,42983,11.38,73574.5,-5.41,-6.05,-6.19,0,*59
1491670982.82,42984,11.38,73568.8,-5.41,-6.05,-6.05,0,*53
1491670984.04,42985,11.38,73562.5,-5.41,-6.05,-6.09,0,*5E
1491670985.22,42986,11.38,73560.0,-5.39,-6.05,-6.05,0,*5E
1491670986.42,42987,11.38,73560.3,-5.39,-6.01,-6.05,0,*5B
1491670987.64,42988,11.38,73554.3,-5.41,-6.09,-6.05,0,*53
1491670988.83,42989,11.38,73548.5,-5.39,-6.01,-6.05,0,*55
1491670990.05,42990,11.38,73548.5,-5.41,-6.05,-6.09,0,*5A
1491670991.27,42991,11.38,73538.5,-5.41,-6.05,-6.05,0,*57
1491670992.52,42992,11.44,73550.8,-5.41,-6.19,-6.09,0,*55
1491670993.71,42993,11.38,73544.0,-5.39,-6.05,-6.05,0,*5A
1491670994.9,42994,11.38,73546.0,-5.39,-6.01,-6.01,0,*5D
1491670996.13,42995,11.38,73546.5,-5.41,-6.09,-6.09,0,*53
1491670997.35,42996,11.38,73552.0,-5.41,-6.05,-6.09,0,*5C
1491670998.57,42997,11.38,73556.8,-5.41,-6.05,-6.09,0,*5D
1491670999.76,42998,11.38,73588.5,-5.39,-6.05,-6.05,0,*51
1491671000.98,42999,11.38,73554.5,-5.41,-6.09,-6.09,0,*5F
1491671002.21,43000,11.38,73552.3,-5.41,-6.09,-6.05,0,*5B
1491671003.43,43001,11.38,73564.8,-5.41,-6.09,-6.09,0,*56
1491671004.62,43002,11.38,73544.0,-5.39,-6.05,-6.05,0,*5A
1491671005.84,43003,11.44,73560.3,-5.41,-6.05,-6.09,0,*58
1491671007.07,43004,11.38,73552.5,-5.41,-6.09,-6.09,0,*53
1491671008.26,43005,11.38,73544.5,-5.39,-6.05,-6.01,0,*59
1491671009.48,43006,11.38,73638.0,-5.39,-5.93,-6.05,0,*52
1491671010.67,43007,11.38,73580.0,-5.39,-6.05,-6.01,0,*5B
1491671011.86,43008,11.38,73556.8,-5.39,-6.05,-6.05,0,*50
1491671013.08,43009,11.38,73566.5,-5.41,-6.09,-6.09,0,*5E
1491671014.28,43010,11.38,73562.5,-5.39,-6.01,-6.01,0,*59
1491671015.5,43011,11.38,73544.8,-5.41,-6.09,-6.09,0,*57
1491671016.69,43012,11.38,73548.8,-5.39,-6.01,-6.01,0,*5B
1491671017.89,43013,11.38,73542.5,-5.39,-6.01,-6.01,0,*5A
1491671019.08,43014,11.44,73546.3,-5.39,-6.05,-6.05,0,*5D
1491671020.27,43015,11.38,73550.8,-5.39,-6.05,-6.05,0,*5C
1491671021.48,43016,11.38,73568.8,-5.41,-6.05,-6.09,0,*5C
1491671022.67,43017,11.38,73562.8,-5.39,-6.05,-6.01,0,*5A
1491671023.9,43018,11.38,73576.8,-5.41,-6.09,-6.05,0,*52
1491671025.13,43019,11.38,73584.8,-5.41,-6.09,-6.09,0,*5F
1491671026.32,43020,11.38,73574.8,-5.39,-6.05,-6.01,0,*5E
1491671027.51,43021,11.38,73570.0,-5.39,-6.01,-6.01,0,*5B
1491671028.7,43022,11.38,73558.3,-5.39,-6.05,-6.05,0,*58
1491671029.92,43023,11.38,73556.8,-5.41,-6.09,-6.05,0,*5A
1491671031.11,43024,11.38,73556.3,-5.39,-6.05,-6.01,0,*5A
1491671032.34,43025,11.38,73556.3,-5.41,-6.09,-6.05,0,*5C
1491671033.53,43026,11.38,73544.8,-5.39,-6.05,-6.05,0,*5C
1491671034.72,43027,11.38,73570.5,-5.39,-6.01,-6.05,0,*59
1491671035.91,43028,11.44,73570.0,-5.39,-6.05,-6.05,0,*52
1491671037.13,43029,11.38,73570.8,-5.41,-6.09,-6.05,0,*50
1491671038.35,43030,11.38,73566.8,-5.41,-6.05,-6.05,0,*54
1491671039.54,43031,11.38,73574.8,-5.39,-6.01,-6.05,0,*5E
1491671040.74,43032,11.38,73570.5,-5.39,-6.01,-6.01,0,*59
1491671041.96,43033,11.38,73570.3,-5.41,-6.09,-6.05,0,*5B
1491671043.18,43034,11.38,73560.8,-5.41,-6.05,-6.09,0,*5C
1491671044.37,43035,11.38,73564.5,-5.39,-6.05,-6.01,0,*5A
1491671045.59,43036,11.38,73564.8,-5.41,-6.05,-6.05,0,*52
1491671046.78,43037,11.38,73568.3,-5.39,-6.05,-6.05,0,*5C
1491671047.97,43038,11.44,73560.0,-5.39,-6.05,-6.01,0,*57
1491671049.16,43039,11.38,73554.0,-5.39,-6.01,-6.05,0,*56
1491671050.39,43040,11.38,73548.0,-5.41,-6.09,-6.05,0,*5F
1491671051.58,43041,11.44,73556.3,-5.39,-6.05,-6.05,0,*5D
1491671052.8,43042,11.44,73572.3,-5.41,-6.05,-6.09,0,*5D
1491671053.98,43043,11.38,73590.0,-5.39,-6.05,-6.01,0,*5B
1491671055.18,43044,11.38,73582.3,-5.39,-6.01,-6.01,0,*58
1491671056.4,43045,11.44,73582.0,-5.41,-6.09,-6.09,0,*56
1491671057.6,43046,11.38,73582.0,-5.39,-6.01,-6.05,0,*5E
1491671058.82,43047,11.44,73572.0,-5.41,-6.05,-6.09,0,*58
1491671060.01,43048,11.38,73570.5,-5.39,-6.01,-6.05,0,*50
1491671061.2,43049,11.44,73580.3,-5.39,-6.05,-6.01,0,*51
1491671062.42,43050,11.44,73584.8,-5.41,-6.09,-6.05,0,*5E
1491671063.61,43051,11.38,73584.8,-5.39,-6.05,-6.09,0,*50
1491671064.84,43052,11.44,73592.3,-5.41,-6.09,-6.05,0,*5C
1491671066.03,43053,11.38,73594.3,-5.39,-6.01,-6.01,0,*5E
1491671067.25,43054,11.38,73578.8,-5.39,-6.01,-5.93,0,*51
1491671068.45,43055,11.38,73572.0,-5.39,-6.01,-6.01,0,*58
1491671069.67,43056,11.38,73574.0,-5.41,-6.09,-6.05,0,*58
1491671070.87,43057,11.38,73566.5,-5.39,-6.01,-6.01,0,*5A
1491671072.09,43058,11.38,73550.5,-5.41,-6.05,-6.09,0,*56
1491671073.27,43059,11.38,73548.3,-5.39,-6.05,-6.05,0,*54
1491671074.46,43060,11.38,73562.5,-5.39,-6.05,-6.05,0,*5E
1491671075.66,43061,11.44,73562.8,-5.39,-6.01,-6.01,0,*5F
1491671076.88,43062,11.44,73588.5,-5.41,-6.05,-6.09,0,*5F
1491671078.07,43063,11.44,73574.8,-5.39,-6.05,-6.05,0,*5D
1491671079.26,43064,11.38,73566.3,-5.39,-6.09,-6.05,0,*56
1491671080.45,43065,11.38,73580.0,-5.39,-6.05,-6.01,0,*5F
1491671081.67,43066,11.38,73566.3,-5.41,-6.05,-6.01,0,*53
1491671082.86,43067,11.44,73568.5,-5.39,-6.01,-6.09,0,*51
1491671084.05,43068,11.38,73562.8,-5.39,-6.05,-6.01,0,*52
1491671085.25,43069,11.38,73572.0,-5.39,-6.01,-6.05,0,*53
1491671086.47,43070,11.44,73578.3,-5.41,-6.05,-6.05,0,*50
1491671087.68,43071,11.38,73562.8,-5.41,-6.05,-6.05,0,*51
1491671088.91,43072,11.38,73556.5,-5.41,-6.09,-6.05,0,*5E
1491671090.1,43073,11.38,73562.8,-5.39,-6.01,-6.01,0,*5C
1491671091.29,43074,11.38,73566.3,-5.39,-6.01,-6.05,0,*5F
1491671092.48,43075,11.38,73564.5,-5.39,-6.05,-6.05,0,*5A
1491671093.67,43076,11.38,73566.8,-5.39,-6.05,-6.01,0,*5D
1491671094.87,43077,11.38,73564.8,-5.39,-6.01,-6.01,0,*58
1491671096.09,43078,11.44,73568.0,-5.41,-6.09,-6.05,0,*54
1491671097.28,43079,11.38,73578.8,-5.39,-6.05,-6.05,0,*56
1491671098.47,43080,11.38,73578.8,-5.39,-6.05,-6.05,0,*50
1491671099.66,43081,11.38,73574.5,-5.39,-6.01,-6.01,0,*51
1491671100.86,43082,11.44,73582.0,-5.39,-6.01,-6.01,0,*52
1491671102.05,43083,11.38,73574.5,-5.39,-6.01,-6.01,0,*53
1491671103.24,43084,11.44,73580.5,-5.39,-6.01,-6.01,0,*54
1491671104.46,43085,11.44,73578.0,-5.41,-6.05,-6.01,0,*5E
1491671105.65,43086,11.44,73578.3,-5.39,-6.05,-6.09,0,*5A
1491671106.85,43087,11.38,73562.0,-5.39,-6.01,-6.01,0,*57
1491671108.04,43088,11.44,73576.3,-5.39,-6.05,-6.05,0,*58
1491671109.22,43089,11.38,73572.3,-5.39,-6.05,-6.01,0,*5D
1491671110.44,43090,11.44,73576.5,-5.41,-6.05,-6.05,0,*5E
1491671111.64,43091,11.38,73574.0,-5.39,-6.01,-6.01,0,*50
1491671112.83,43092,11.38,73582.3,-5.39,-6.01,-6.01,0,*53
1491671114.05,43093,11.38,73588.3,-5.41,-5.97,-6.05,0,*55
1491671115.25,43094,11.38,73580.0,-5.39,-6.01,-6.01,0,*55
1491671116.44,43095,11.38,73578.5,-5.39,-6.05,-6.01,0,*50
1491671117.62,43096,11.38,73572.5,-5.39,-6.05,-6.05,0,*57
1491671118.82,43097,11.38,73572.5,-5.39,-6.01,-6.01,0,*56
1491671120.01,43098,11.38,73582.5,-5.39,-6.05,-6.01,0,*5D
1491671121.2,43099,11.38,73572.3,-5.39,-6.05,-6.01,0,*5C
1491671122.39,43100,11.38,73562.5,-5.39,-6.01,-6.01,0,*59
1491671123.62,43101,11.38,73556.3,-5.41,-6.09,-6.09,0,*57
1491671124.81,43102,11.38,73562.8,-5.39,-6.01,-6.01,0,*5B
1491671126.0,43103,11.38,73576.8,-5.39,-6.01,-6.05,0,*5E
1491671127.2,43104,11.38,73576.0,-5.39,-6.01,-6.05,0,*59
1491671128.39,43105,11.38,73564.0,-5.39,-6.01,-6.01,0,*5C
1491671129.58,43106,11.38,73560.5,-5.39,-6.05,-6.01,0,*5B
1491671130.8,43107,11.38,73552.3,-5.39,-5.93,-6.01,0,*56
1491671132.05,43108,11.38,73546.0,-5.41,-5.93,-6.05,0,*52
1491671133.27,43109,11.38,73546.3,-5.39,-5.93,-6.05,0,*5C
1491671134.47,43110,11.44,73540.5,-5.39,-6.01,-6.01,0,*58
1491671135.69,43111,11.38,73534.0,-5.39,-6.01,-5.93,0,*51
1491671136.88,43112,11.38,73530.0,-5.35,-5.97,-5.97,0,*56
1491671138.07,43113,11.38,73524.3,-5.39,-6.01,-6.05,0,*5F
1491671139.27,43114,11.38,73508.3,-5.39,-6.01,-6.01,0,*5C
1491671140.46,43115,11.38,73510.0,-5.39,-6.01,-6.01,0,*5D
1491671141.66,43116,11.38,73508.3,-5.39,-6.01,-6.01,0,*5E
1491671142.85,43117,11.38,73514.5,-5.39,-6.01,-6.05,0,*5B
1491671144.04,43118,11.38,73516.0,-5.39,-6.05,-6.01,0,*54
1491671145.23,43119,11.38,73522.3,-5.39,-6.05,-6.01,0,*55
1491671146.42,43120,11.38,73534.3,-5.39,-6.01,-6.05,0,*5F
1491671147.61,43121,11.38,73532.8,-5.39,-6.05,-6.05,0,*5A
1491671148.83,43122,11.38,73534.3,-5.41,-6.05,-6.05,0,*56
1491671150.02,43123,11.38,73526.5,-5.39,-6.01,-6.01,0,*58
1491671151.21,43124,11.38,73524.3,-5.39,-6.01,-6.05,0,*5B
1491671152.43,43125,11.38,73514.8,-5.41,-6.05,-6.01,0,*55
1491671153.63,43126,11.38,73516.8,-5.39,-6.01,-6.05,0,*59
1491671154.82,43127,11.38,73518.8,-5.39,-6.01,-6.01,0,*5C
1491671156.01,43128,11.38,73526.3,-5.39,-6.01,-6.01,0,*53
1491671157.21,43129,11.38,73526.3,-5.39,-6.01,-6.01,0,*52
1491671158.4,43130,11.38,73532.3,-5.39,-6.05,-6.01,0,*5E
1491671159.59,43131,11.38,73532.3,-5.39,-6.01,-6.01,0,*5B
1491671160.78,43132,11.38,73532.3,-5.39,-6.05,-6.01,0,*5C
1491671161.97,43133,11.38,73540.0,-5.39,-6.05,-6.01,0,*5D
1491671163.16,43134,11.38,73544.5,-5.39,-6.01,-6.01,0,*5E
1491671164.35,43135,11.38,73534.5,-5.39,-6.05,-6.05,0,*5F
1491671165.54,43136,11.38,73546.5,-5.39,-6.05,-6.01,0,*58
1491671166.74,43137,11.38,73548.3,-5.39,-6.01,-6.01,0,*5D
1491671167.93,43138,11.38,73550.8,-5.39,-6.01,-6.01,0,*52
1491671169.16,43139,11.38,73556.3,-5.41,-6.09,-6.09,0,*5C
1491671170.34,43140,11.38,73560.8,-5.39,-6.05,-6.05,0,*5D
1491671171.53,43141,11.38,73564.3,-5.39,-6.05,-6.05,0,*5C
1491671172.75,43142,11.38,73562.8,-5.41,-6.05,-6.09,0,*5C
1491671173.95,43143,11.38,73570.8,-5.39,-6.01,-6.01,0,*5E
1491671175.17,43144,11.38,73570.3,-5.41,-6.05,-6.05,0,*56
1491671176.35,43145,11.38,73564.5,-5.39,-6.05,-6.05,0,*58
1491671177.57,43146,11.38,73568.5,-5.41,-6.05,-6.05,0,*54
1491671178.76,43147,11.38,73570.3,-5.39,-6.05,-6.01,0,*5E
1491671179.96,43148,11.38,73564.5,-5.39,-6.01,-6.05,0,*51
1491671181.15,43149,11.38,73570.5,-5.39,-6.01,-6.01,0,*54
1491671182.34,43150,11.38,73566.3,-5.39,-6.01,-6.05,0,*58
1491671183.53,43151,11.38,73566.5,-5.39,-6.01,-6.05,0,*59
1491671184.75,43152,11.38,73562.0,-5.41,-6.05,-6.09,0,*5D
1491671185.94,43153,11.38,73554.3,-5.39,-6.05,-6.01,0,*5B
1491671187.14,43154,11.38,73560.5,-5.39,-6.01,-6.05,0,*5C
1491671188.33,43155,11.38,73560.5,-5.39,-6.05,-6.01,0,*5D
1491671189.51,43156,11.38,73556.3,-5.39,-6.05,-6.05,0,*5A
1491671190.7,43157,11.38,73554.3,-5.39,-6.05,-6.01,0,*5F
1491671191.9,43158,11.38,73554.3,-5.39,-6.01,-6.01,0,*54
1491671193.09,43159,11.38,73548.5,-5.39,-6.01,-6.01,0,*55
1491671194.29,43160,11.38,73546.0,-5.39,-6.01,-6.01,0,*5F
1491671195.5,43161,11.38,73546.0,-5.41,-6.05,-6.05,0,*51
1491671196.69,43162,11.38,73538.3,-5.39,-6.05,-6.01,0,*59
1491671197.89,43163,11.38,73544.3,-5.39,-6.01,-6.01,0,*5C
1491671199.08,43164,11.38,73550.0,-5.39,-6.05,-6.01,0,*5F
1491671200.27,43165,11.38,73548.8,-5.39,-6.05,-6.01,0,*5E
1491671201.46,43166,11.38,73548.0,-5.39,-6.01,-6.01,0,*59
1491671202.65,43167,11.38,73556.5,-5.39,-6.05,-6.05,0,*58
1491671203.84,43168,11.38,73546.8,-5.39,-6.01,-6.05,0,*53
1491671205.04,43169,11.38,73554.0,-5.39,-6.01,-6.01,0,*56
1491671206.23,43170,11.38,73548.8,-5.39,-6.01,-6.01,0,*5E
1491671207.42,43171,11.38,73548.8,-5.39,-6.05,-6.01,0,*5B
1491671208.61,43172,11.38,73558.8,-5.39,-6.01,-6.05,0,*58
1491671209.81,43173,11.38,73566.3,-5.39,-6.01,-6.01,0,*5D
1491671211.0,43174,11.38,73570.5,-5.39,-6.01,-6.01,0,*5A
1491671212.19,43175,11.38,73560.8,-5.39,-6.05,-6.01,0,*5F
1491671213.38,43176,11.38,73586.0,-5.39,-6.01,-6.01,0,*58
1491671214.58,43177,11.38,73560.0,-5.39,-6.01,-6.01,0,*59
1491671215.77,43178,11.38,73560.0,-5.39,-6.01,-6.01,0,*56
1491671216.96,43179,11.38,73556.5,-5.39,-6.05,-6.05,0,*57
1491671218.15,43180,11.38,73552.3,-5.39,-6.01,-6.05,0,*55
1491671219.34,43181,11.38,73556.8,-5.39,-6.01,-6.05,0,*54
1491671220.57,43182,11.38,73550.3,-5.39,-6.01,-5.93,0,*5B
1491671221.76,43183,11.38,73578.8,-5.39,-6.05,-6.01,0,*56
1491671222.95,43184,11.38,73554.8,-5.39,-6.05,-6.01,0,*51
1491671224.16,43185,11.38,73558.3,-5.41,-6.05,-6.05,0,*5B
1491671225.36,43186,11.38,73550.8,-5.39,-6.01,-6.01,0,*57
1491671226.55,43187,11.38,73570.3,-5.39,-6.01,-6.01,0,*56
1491671227.77,43188,11.38,73558.5,-5.39,-5.93,-6.05,0,*55
1491671228.96,43189,11.38,73560.5,-5.39,-6.05,-6.01,0,*5C
1491671230.16,43190,11.38,73556.0,-5.39,-6.01,-6.01,0,*50
1491671231.35,43191,11.38,73562.0,-5.39,-6.01,-6.05,0,*55
1491671232.54,43192,11.38,73572.3,-5.39,-6.05,-6.05,0,*52
1491671233.73,43193,11.38,73576.5,-5.39,-6.05,-6.01,0,*57
1491671234.92,43194,11.38,73574.3,-5.39,-6.01,-6.05,0,*50
1491671236.15,43195,11.38,73568.5,-5.41,-6.09,-6.09,0,*5A
1491671237.34,43196,11.38,73574.3,-5.39,-6.01,-6.05,0,*52
1491671238.53,43197,11.38,73570.3,-5.39,-6.09,-6.05,0,*5B
1491671239.72,43198,11.38,73574.0,-5.39,-6.05,-6.05,0,*58
1491671240.94,43199,11.38,73568.3,-5.41,-6.05,-6.09,0,*5A
1491671242.13,43200,11.38,73554.8,-5.39,-6.01,-6.05,0,*5E
1491671243.33,43201,11.38,73576.5,-5.39,-6.01,-6.01,0,*5B
1491671244.55,43202,11.38,73574.8,-5.41,-6.09,-6.09,0,*57
1491671245.74,43203,11.38,73558.8,-5.39,-6.05,-6.01,0,*5D
1491671246.94,43204,11.38,73566.0,-5.35,-6.01,-5.97,0,*5E
1491671248.13,43205,11.38,73546.8,-5.39,-6.01,-6.01,0,*5F
1491671249.35,43206,11.38,73566.8,-5.41,-6.09,-6.05,0,*5F
1491671250.55,43207,11.38,73564.0,-5.39,-6.01,-6.05,0,*59
1491671251.74,43208,11.38,73578.3,-5.39,-6.01,-6.01,0,*52
1491671252.93,43209,11.38,73576.5,-5.39,-6.05,-6.01,0,*57
1491671254.12,43210,11.38,73552.8,-5.39,-6.05,-6.05,0,*5B
1491671255.31,43211,11.38,73546.0,-5.39,-6.05,-6.05,0,*5A
1491671256.5,43212,11.38,73552.8,-5.35,-6.01,-5.97,0,*59
1491671257.69,43213,11.38,73566.5,-5.35,-5.97,-5.97,0,*54
1491671258.92,43214,11.38,73558.3,-5.35,-5.97,-5.89,0,*5C
1491671260.11,43215,11.38,73570.5,-5.35,-6.01,-5.97,0,*5E
1491671261.3,43216,11.38,73592.5,-5.35,-5.97,-5.97,0,*51
1491671262.49,43217,11.38,73588.5,-5.35,-6.01,-5.97,0,*5C
1491671263.69,43218,11.38,73570.8,-5.35,-6.01,-6.01,0,*5F
1491671264.88,43219,11.38,73568.3,-5.35,-6.01,-6.01,0,*5E
1491671266.07,43220,11.38,73566.5,-5.35,-5.97,-5.97,0,*54
1491671267.26,43221,11.38,73576.0,-5.39,-6.01,-6.01,0,*59
1491671268.45,43222,11.38,73580.5,-5.39,-6.05,-6.01,0,*5E
1491671269.65,43223,11.38,73572.3,-5.35,-5.97,-6.01,0,*5B
1491671270.84,43224,11.38,73566.5,-5.35,-6.01,-5.97,0,*5C
1491671272.03,43225,11.38,73558.8,-5.35,-6.01,-5.97,0,*5D
1491671273.22,43226,11.38,73560.0,-5.35,-5.97,-6.01,0,*5E
1491671274.42,43227,11.38,73558.3,-5.35,-6.01,-5.97,0,*5F
1491671275.61,43228,11.38,73552.8,-5.35,-5.97,-6.01,0,*50
1491671276.8,43229,11.38,73550.8,-5.35,-5.97,-5.97,0,*5D
1491671277.99,43230,11.38,73546.0,-5.35,-5.97,-6.01,0,*59
1491671279.19,43231,11.38,73560.5,-5.35,-6.01,-5.97,0,*58
1491671280.38,43232,11.38,73556.8,-5.39,-6.05,-6.01,0,*5F
1491671281.57,43233,11.38,73552.0,-5.39,-6.05,-6.01,0,*5E
1491671282.79,43234,11.38,73562.5,-5.41,-6.05,-6.05,0,*52
1491671283.97,43235,11.38,73572.5,-5.39,-6.05,-6.05,0,*5C
1491671285.16,43236,11.38,73572.5,-5.39,-6.05,-6.05,0,*5F
1491671286.36,43237,11.38,73572.3,-5.39,-6.01,-6.01,0,*5E
1491671287.55,43238,11.38,73570.8,-5.39,-6.05,-6.05,0,*51
1491671288.73,43239,11.38,73572.3,-5.39,-6.05,-6.05,0,*50
1491671289.93,43240,11.38,73572.8,-5.39,-6.01,-6.05,0,*5A
1491671291.12,43241,11.38,73572.5,-5.39,-6.05,-6.01,0,*5B
1491671292.31,43242,11.38,73576.0,-5.39,-6.05,-6.05,0,*5C
1491671293.5,43243,11.38,73580.3,-5.39,-6.01,-6.01,0,*5D
1491671294.69,43244,11.38,73574.5,-5.39,-6.09,-6.09,0,*5A
1491671295.89,43245,11.38,73574.5,-5.39,-6.01,-6.05,0,*5F
1491671297.08,43246,11.38,73578.3,-5.39,-6.05,-6.01,0,*5C